Location: Jesenik
(50.2330°N, 17.2000°E)
Time: 00:22:51
(UTC+02:00)

ISS - Pass Details

Date: 24 March 2019
Orbit: 408 x 410 km, 51.6° (Epoch: 18 April)

Event Time Altitude Azimuth Distance (km) Brightness Sun altitude
Rises 21:03:53 0° 265° (W) 2,335 0.7 -26.3°
Reaches altitude 10° 21:05:59 10° 267° (W) 1,474 -0.4 -26.6°
Enters shadow 21:06:52 17° 270° (W) 1,119 -1.1 -26.7°
